Homestead AFB, FL

8:58 PM EDT on August 22, 2017 (GMT -0400)
Dade County-Homestead Regional

Weather History for KHST - December, 2013

Change the Weather History Date:

Friday, December 20, 2013

  Actual Average Record
Temperature  
Mean Temperature 76 °F -  
Max Temperature 80 °F 77 °F 87 °F (1948)
Min Temperature 73 °F 55 °F 30 °F (1943)
Cooling Degree Days 12    
Growing Degree Days 26 (Base 50)    
Moisture  
Dew Point 69 °F    
Average Humidity 80    
Maximum Humidity 85    
Minimum Humidity 69    
Precipitation  
Precipitation 0.00 in - - ()
Sea Level Pressure  
Sea Level Pressure 30.15 in    
Wind  
Wind Speed 11 mph (East)    
Max Wind Speed 18 mph    
Max Gust Speed 23 mph    
Visibility 10 miles    
Events Rain    
Averages and records for this station are not official NWS values.
T = Trace of Precipitation, MM = Missing Value Source: NWS Daily Summary

Daily Weather History Graph

Daily Weather History Graph

Search for Another Location

Airport or City:

Trip Planner

Search our weather history database for the weather conditions in past years. The results will help you decide how hot, cold, wet, or windy it might be!

Date:

Astronomy

Dec. 20, 2013 Rise Set
Actual Time 7:02 AM EST 5:35 PM EST
Civil Twilight 6:37 AM EST 6:00 PM EST
Nautical Twilight 6:09 AM EST 6:29 PM EST
Astronomical Twilight 5:40 AM EST 6:57 PM EST
Moon 8:38 PM EST (12/20) 9:10 AM EST (12/20)
Length of Visible Light 11h 23m
Length of Day
10h 33m
Waning Gibbous, 90% of the Moon is Illuminated
Dec 20
Waning Gibbous
Dec 25
Last Quarter
Jan 1
New
Jan 7
First Quarter
Jan 15
Full

Hourly Weather History & Observations

Time (EST) Temp. Heat Index Dew Point Humidity Pressure Visibility Wind Dir Wind Speed Gust Speed Precip Events Conditions
12:58 AM 73.2 °F - 67.8 °F 83% 30.15 in 10.0 mi East 9.2 mph - N/A   Partly Cloudy
1:58 AM 73.6 °F - 67.6 °F 82% 30.14 in 10.0 mi East 10.4 mph - N/A   Partly Cloudy
2:38 AM 73.4 °F - 68.0 °F 83% 30.13 in 10.0 mi East 11.5 mph - N/A   Mostly Cloudy
2:48 AM 73.4 °F - 68.0 °F 83% 30.12 in 10.0 mi East 10.4 mph - N/A   Scattered Clouds
2:58 AM 74.1 °F - 68.0 °F 81% 30.13 in 10.0 mi East 10.4 mph - N/A   Mostly Cloudy
3:58 AM 73.6 °F - 67.8 °F 82% 30.13 in 10.0 mi East 11.5 mph - N/A   Scattered Clouds
4:38 AM 73.4 °F - 68.0 °F 83% 30.13 in 10.0 mi East 11.5 mph - N/A   Light Drizzle
4:47 AM 73.4 °F - 68.0 °F 83% 30.13 in 10.0 mi East 10.4 mph - N/A   Scattered Clouds
4:58 AM 74.3 °F - 67.8 °F 80% 30.14 in 10.0 mi East 10.4 mph - 0.00 in   Scattered Clouds
5:58 AM 73.9 °F - 68.5 °F 83% 30.15 in 10.0 mi East 10.4 mph - N/A   Partly Cloudy
6:58 AM 73.8 °F - 68.7 °F 84% 30.16 in 10.0 mi East 11.5 mph - N/A   Partly Cloudy
7:58 AM 74.8 °F - 68.5 °F 81% 30.17 in 10.0 mi East 10.4 mph - N/A   Partly Cloudy
8:58 AM 77.0 °F - 68.7 °F 75% 30.18 in 10.0 mi East 18.4 mph 23.0 mph N/A   Clear
9:58 AM 77.9 °F - 69.3 °F 75% 30.19 in 10.0 mi East 16.1 mph 20.7 mph N/A   Clear
10:58 AM 78.4 °F - 69.3 °F 73% 30.19 in 10.0 mi East 15.0 mph 19.6 mph N/A   Scattered Clouds
11:58 AM 80.1 °F 83.2 °F 69.8 °F 71% 30.18 in 10.0 mi East 16.1 mph - N/A   Partly Cloudy
12:58 PM 80.6 °F 83.8 °F 69.4 °F 69% 30.15 in 10.0 mi East 17.3 mph - 0.00 in Rain Light Rain
1:58 PM 80.6 °F 83.8 °F 69.4 °F 69% 30.13 in 10.0 mi East 16.1 mph 20.7 mph 0.00 in   Clear
2:58 PM 79.7 °F - 69.8 °F 72% 30.12 in 10.0 mi East 13.8 mph 19.6 mph N/A   Clear
3:58 PM 77.9 °F - 70.0 °F 76% 30.12 in 10.0 mi East 10.4 mph - N/A   Clear
4:58 PM 76.6 °F - 70.5 °F 81% 30.12 in 10.0 mi East 9.2 mph - N/A   Partly Cloudy
5:58 PM 75.6 °F - 70.5 °F 84% 30.13 in 10.0 mi East 8.1 mph - N/A   Partly Cloudy
6:58 PM 75.7 °F - 70.7 °F 84% 30.14 in 10.0 mi East 8.1 mph - N/A   Partly Cloudy
7:58 PM 76.1 °F - 70.7 °F 83% 30.15 in 10.0 mi East 10.4 mph - N/A   Scattered Clouds
8:58 PM 76.3 °F - 70.3 °F 82% 30.17 in 10.0 mi East 9.2 mph - N/A   Partly Cloudy
9:58 PM 76.3 °F - 70.5 °F 82% 30.17 in 10.0 mi East 10.4 mph - N/A   Scattered Clouds
10:58 PM 75.9 °F - 70.9 °F 84% 30.17 in 10.0 mi East 11.5 mph - N/A   Partly Cloudy
11:58 PM 75.7 °F - 71.1 °F 85% 30.16 in 10.0 mi East 10.4 mph - N/A   Partly Cloudy